DLH1010 EDDM-KLAX

Flight info

Callsign DLH1010
Flight time N/A
Altitude 34000
Route INPUD2N INPUD Y102 UPALA Z109 BAMAS L604 GASKA DCT MAPOX DCT BIGGE DCT LONAM DCT ERAKA/M080F360 DCT 59N015W 59N020W 59N030W 59N040W 59N050W DCT AVUTI/N0465F360 DCT KLIPS DCT GRAND/N0468F380 DCT 55N086W DCT KALLU DCT MOT DCT BOY/N0454F400 DCT MLF J107 BLD DCT HAKMN ANJLL4
Aircraft A343/H-SDE2E3FGHIJ4J5M1RWXY/LB1D1

Departure

Time N/A
Airport Munich Airport (EDDM)

Arrival

Time 2026-04-21 18:18
Airport Los Angeles International Airport (KLAX)
Time Latitude Longitude Altitude Speed Heading
2026-04-21 17:54 34.51026 -116.35916 32138 ft 404 kts 227°
2026-04-21 17:54 34.49107 -116.38340 31536 ft 403 kts 227°
2026-04-21 17:55 34.47178 -116.40774 31030 ft 399 kts 227°
2026-04-21 17:55 34.45263 -116.43189 30547 ft 396 kts 227°
2026-04-21 17:55 34.43373 -116.45597 30057 ft 393 kts 228°
2026-04-21 17:55 34.41681 -116.48173 29488 ft 390 kts 235°
2026-04-21 17:56 34.40317 -116.51001 28983 ft 388 kts 241°
2026-04-21 17:56 34.39109 -116.53906 28467 ft 385 kts 242°
2026-04-21 17:56 34.37928 -116.56797 27965 ft 382 kts 242°
2026-04-21 17:56 34.36751 -116.59669 27452 ft 379 kts 242°
2026-04-21 17:57 34.35587 -116.62504 26958 ft 375 kts 242°
2026-04-21 17:57 34.34447 -116.65272 26692 ft 367 kts 242°
2026-04-21 17:57 34.33325 -116.67995 26548 ft 356 kts 241°
2026-04-21 17:57 34.32239 -116.70679 26063 ft 354 kts 242°
2026-04-21 17:58 34.31166 -116.73361 25585 ft 355 kts 241°
2026-04-21 17:58 34.30092 -116.76050 25134 ft 355 kts 242°
2026-04-21 17:58 34.29015 -116.78734 24656 ft 354 kts 242°
2026-04-21 17:58 34.27939 -116.81404 24191 ft 353 kts 241°
2026-04-21 17:59 34.26866 -116.84063 23732 ft 352 kts 241°
2026-04-21 17:59 34.25807 -116.86685 23233 ft 351 kts 241°
2026-04-21 17:59 34.24742 -116.89322 22840 ft 347 kts 241°
2026-04-21 17:59 34.23692 -116.91922 22432 ft 343 kts 241°
2026-04-21 18:00 34.22649 -116.94500 21923 ft 341 kts 241°
2026-04-21 18:00 34.21616 -116.97061 21485 ft 338 kts 241°
2026-04-21 18:00 34.20736 -116.99698 21045 ft 339 kts 247°
2026-04-21 18:00 34.19993 -117.02391 20605 ft 338 kts 248°
2026-04-21 18:01 34.19270 -117.05085 20182 ft 336 kts 248°
2026-04-21 18:01 34.18552 -117.07758 19827 ft 333 kts 248°
2026-04-21 18:01 34.17836 -117.10409 19441 ft 331 kts 248°
2026-04-21 18:01 34.17132 -117.13006 19064 ft 329 kts 247°
2026-04-21 18:02 34.16654 -117.14775 18808 ft 328 kts 247°
2026-04-21 18:02 34.15714 -117.18236 18319 ft 326 kts 247°
2026-04-21 18:02 34.15002 -117.20821 17949 ft 323 kts 247°
2026-04-21 18:02 34.14301 -117.23371 17267 ft 316 kts 247°
2026-04-21 18:03 34.13611 -117.25876 16462 ft 313 kts 246°
2026-04-21 18:03 34.12928 -117.28351 16014 ft 310 kts 246°
2026-04-21 18:03 34.12246 -117.30818 15573 ft 310 kts 246°
2026-04-21 18:03 34.11563 -117.33288 15100 ft 311 kts 246°
2026-04-21 18:04 34.10890 -117.35724 14693 ft 310 kts 246°
2026-04-21 18:04 34.10216 -117.38184 14254 ft 307 kts 247°
2026-04-21 18:04 34.09610 -117.40606 13725 ft 295 kts 248°
2026-04-21 18:04 34.09041 -117.42935 13284 ft 287 kts 248°
2026-04-21 18:05 34.08469 -117.45243 12870 ft 287 kts 248°
2026-04-21 18:05 34.07893 -117.47548 12530 ft 286 kts 248°
2026-04-21 18:05 34.07362 -117.49820 12396 ft 278 kts 251°
2026-04-21 18:05 34.06979 -117.52105 12046 ft 278 kts 254°
2026-04-21 18:06 34.06641 -117.54408 11662 ft 279 kts 255°
2026-04-21 18:06 34.06310 -117.56685 11271 ft 280 kts 255°
2026-04-21 18:06 34.05971 -117.58999 10878 ft 280 kts 255°
2026-04-21 18:06 34.05632 -117.61311 10498 ft 281 kts 255°
2026-04-21 18:07 34.05295 -117.63606 10295 ft 273 kts 255°
2026-04-21 18:07 34.04979 -117.65787 10184 ft 255 kts 255°
2026-04-21 18:07 34.04677 -117.67848 10022 ft 247 kts 255°
2026-04-21 18:07 34.04372 -117.69891 9675 ft 248 kts 255°
2026-04-21 18:08 34.04065 -117.71943 9337 ft 249 kts 256°
2026-04-21 18:08 34.03757 -117.74006 9003 ft 250 kts 256°
2026-04-21 18:08 34.03449 -117.76074 8663 ft 251 kts 256°
2026-04-21 18:08 34.03145 -117.78117 8333 ft 251 kts 256°
2026-04-21 18:09 34.02836 -117.80187 7996 ft 252 kts 257°
2026-04-21 18:09 34.02525 -117.82272 7647 ft 253 kts 257°
2026-04-21 18:09 34.02319 -117.83657 7429 ft 253 kts 257°
2026-04-21 18:09 34.01900 -117.86459 6962 ft 255 kts 258°
2026-04-21 18:10 34.01583 -117.88573 6615 ft 256 kts 258°
2026-04-21 18:10 34.01266 -117.90691 6244 ft 257 kts 258°
2026-04-21 18:10 34.00947 -117.92815 5890 ft 258 kts 258°
2026-04-21 18:10 34.00633 -117.94911 5546 ft 258 kts 258°
2026-04-21 18:11 34.00314 -117.97035 5193 ft 258 kts 258°
2026-04-21 18:11 33.99994 -117.99162 4841 ft 259 kts 258°
2026-04-21 18:11 33.99672 -118.01298 4480 ft 258 kts 258°
2026-04-21 18:11 33.99352 -118.03423 4130 ft 258 kts 258°
2026-04-21 18:12 33.98973 -118.05526 3778 ft 256 kts 254°
2026-04-21 18:12 33.98584 -118.07616 3427 ft 256 kts 258°
2026-04-21 18:12 33.98325 -118.09730 3079 ft 255 kts 261°
2026-04-21 18:12 33.98111 -118.11855 2732 ft 254 kts 261°
2026-04-21 18:13 33.97902 -118.13959 2410 ft 253 kts 261°
2026-04-21 18:13 33.97694 -118.16029 2207 ft 250 kts 262°
2026-04-21 18:13 33.97491 -118.18058 2189 ft 238 kts 260°
2026-04-21 18:13 33.97298 -118.19977 2197 ft 224 kts 260°
2026-04-21 18:14 33.96934 -118.23484 2194 ft 198 kts 260°
2026-04-21 18:14 33.96769 -118.25066 2231 ft 181 kts 259°
2026-04-21 18:14 33.96623 -118.26481 2219 ft 161 kts 261°
2026-04-21 18:15 33.96485 -118.27813 2165 ft 159 kts 261°
2026-04-21 18:15 33.96351 -118.29106 1969 ft 153 kts 260°
2026-04-21 18:15 33.96225 -118.30330 1771 ft 144 kts 260°
2026-04-21 18:15 33.96105 -118.31499 1567 ft 139 kts 260°
2026-04-21 18:16 33.95987 -118.32652 1377 ft 139 kts 258°
2026-04-21 18:16 33.95867 -118.33808 1191 ft 139 kts 259°
2026-04-21 18:16 33.95748 -118.34968 1012 ft 140 kts 259°
2026-04-21 18:16 33.95629 -118.36129 812 ft 139 kts 261°
2026-04-21 18:17 33.95510 -118.37287 631 ft 139 kts 261°
2026-04-21 18:17 33.95392 -118.38427 408 ft 136 kts 261°
2026-04-21 18:17 33.95277 -118.39559 244 ft 135 kts 259°
2026-04-21 18:17 33.95161 -118.40655 115 ft 132 kts 260°
2026-04-21 18:18 33.95044 -118.41658 99 ft 103 kts 263°
2026-04-21 18:18 33.94992 -118.42303 99 ft 51 kts 264°
2026-04-21 18:18 33.94949 -118.42520 100 ft 19 kts 246°
2026-04-21 18:18 33.94896 -118.42619 101 ft 11 kts 231°
2026-04-21 18:19 33.94853 -118.42676 101 ft 7 kts 225°
2026-04-21 18:19 33.94828 -118.42705 102 ft 3 kts 219°
2026-04-21 18:19 33.94790 -118.42734 104 ft 10 kts 210°
2026-04-21 18:19 33.94729 -118.42765 103 ft 9 kts 198°
2026-04-21 18:20 33.94662 -118.42761 101 ft 10 kts 154°
2026-04-21 18:20 33.94641 -118.42694 100 ft 8 kts 92°
2026-04-21 18:20 33.94644 -118.42632 99 ft 8 kts 84°
2026-04-21 18:20 33.94650 -118.42565 98 ft 10 kts 84°
2026-04-21 18:21 33.94634 -118.42488 100 ft 9 kts 123°
2026-04-21 18:21 33.94603 -118.42435 101 ft 7 kts 120°
2026-04-21 18:21 33.94595 -118.42392 100 ft 4 kts 95°
2026-04-21 18:21 33.94596 -118.42364 101 ft 4 kts 88°
2026-04-21 18:22 33.94602 -118.42290 101 ft 9 kts 81°
2026-04-21 18:22 33.94609 -118.42223 97 ft 7 kts 84°
2026-04-21 18:22 33.94613 -118.42174 101 ft 5 kts 84°
2026-04-21 18:22 33.94617 -118.42128 100 ft 8 kts 84°
2026-04-21 18:23 33.94623 -118.42047 97 ft 12 kts 84°
2026-04-21 18:23 33.94628 -118.41945 100 ft 12 kts 90°
2026-04-21 18:23 33.94634 -118.41840 97 ft 12 kts 83°
2026-04-21 18:23 33.94635 -118.41757 97 ft 8 kts 109°
2026-04-21 18:24 33.94595 -118.41723 100 ft 9 kts 161°
2026-04-21 18:24 33.94556 -118.41705 100 ft 2 kts 142°
2026-04-21 18:24 33.94548 -118.41691 100 ft 2 kts 123°
2026-04-21 18:24 33.94546 -118.41675 100 ft 1 kts 95°
2026-04-21 18:25 33.94545 -118.41661 101 ft 2 kts 91°
2026-04-21 18:25 33.94545 -118.41652 101 ft 1 kts 89°
2026-04-21 18:25 33.94546 -118.41636 99 ft 2 kts 87°
2026-04-21 18:25 33.94547 -118.41622 99 ft 1 kts 85°
2026-04-21 18:26 33.94548 -118.41615 97 ft 0 kts 85°
2026-04-21 18:26 33.94548 -118.41612 97 ft 0 kts 85°